DLH1487 EDDH-EDDM

Flight info

Callsign DLH1487
Flight time 1h 3m
Altitude 35000
Route AMLUH2G AMLUH M852 DENIX DCT ZUCKA DCT SODRO/N0456F310 T703 LULAR/N0455F300 T105 LANDU LANDU2A
Aircraft A320/M-SDE3FGHIRWY/LB1

Departure

Time 2026-04-30 19:05
Airport Hamburg Helmut Schmidt Airport (EDDH)

Arrival

Time 2026-04-30 20:08
Airport Munich Airport (EDDM)
Time Latitude Longitude Altitude Speed Heading
2026-04-30 18:03 53.63247 10.00358 46 ft 0 kts 88°
2026-04-30 18:47 53.63247 10.00355 46 ft 2 kts 88°
2026-04-30 18:47 53.63246 10.00311 46 ft 4 kts 89°
2026-04-30 18:47 53.63246 10.00266 46 ft 4 kts 93°
2026-04-30 18:48 53.63249 10.00221 46 ft 4 kts 103°
2026-04-30 18:48 53.63259 10.00182 41 ft 4 kts 142°
2026-04-30 18:48 53.63268 10.00173 44 ft 0 kts 176°
2026-04-30 18:51 53.63261 10.00174 43 ft 2 kts 176°
2026-04-30 18:52 53.63237 10.00177 42 ft 5 kts 175°
2026-04-30 18:52 53.63197 10.00183 45 ft 7 kts 175°
2026-04-30 18:52 53.63141 10.00189 45 ft 8 kts 176°
2026-04-30 18:52 53.63088 10.00196 44 ft 7 kts 174°
2026-04-30 18:53 53.63041 10.00203 44 ft 6 kts 175°
2026-04-30 18:53 53.63002 10.00189 44 ft 5 kts 208°
2026-04-30 18:53 53.62973 10.00158 46 ft 5 kts 212°
2026-04-30 18:53 53.62947 10.00132 45 ft 4 kts 212°
2026-04-30 18:54 53.62920 10.00103 46 ft 8 kts 212°
2026-04-30 18:54 53.62871 10.00042 45 ft 8 kts 227°
2026-04-30 18:54 53.62847 9.99968 47 ft 5 kts 243°
2026-04-30 18:54 53.62846 9.99964 47 ft 0 kts 243°
2026-04-30 19:01 53.62846 9.99963 47 ft 1 kts 243°
2026-04-30 19:02 53.62816 9.99860 47 ft 5 kts 251°
2026-04-30 19:02 53.62842 9.99769 47 ft 0 kts 330°
2026-04-30 19:04 53.62990 9.99639 44 ft 63 kts 334°
2026-04-30 19:04 53.64541 9.98310 168 ft 168 kts 335°
2026-04-30 19:05 53.66631 9.96536 1570 ft 176 kts 334°
2026-04-30 19:05 53.69147 9.94717 2377 ft 218 kts 355°
2026-04-30 19:06 53.72175 9.94932 4097 ft 221 kts 22°
2026-04-30 19:06 53.73396 9.96400 4983 ft 217 kts 57°
2026-04-30 19:06 53.74136 10.01226 6830 ft 214 kts 86°
2026-04-30 19:07 53.73373 10.06221 8103 ft 244 kts 118°
2026-04-30 19:07 53.72491 10.08827 8619 ft 263 kts 117°
2026-04-30 19:08 53.70623 10.14344 10177 ft 277 kts 117°
2026-04-30 19:08 53.68146 10.19549 11094 ft 309 kts 144°
2026-04-30 19:08 53.66071 10.20918 11573 ft 332 kts 163°
2026-04-30 19:09 53.61383 10.22666 12520 ft 359 kts 165°
2026-04-30 19:09 53.58920 10.23530 13005 ft 364 kts 165°
2026-04-30 19:09 53.56429 10.24401 13499 ft 367 kts 165°
2026-04-30 19:10 53.51390 10.26190 14489 ft 373 kts 164°
2026-04-30 19:10 53.46281 10.28035 15402 ft 379 kts 164°
2026-04-30 19:11 53.43692 10.28965 15862 ft 382 kts 164°
2026-04-30 19:11 53.38457 10.30836 16819 ft 388 kts 164°
2026-04-30 19:11 53.35809 10.31784 17306 ft 391 kts 164°
2026-04-30 19:12 53.33124 10.32747 17812 ft 397 kts 164°
2026-04-30 19:12 53.30413 10.33720 18316 ft 401 kts 164°
2026-04-30 19:12 53.27674 10.34701 18826 ft 404 kts 164°
2026-04-30 19:13 53.23071 10.36331 19571 ft 409 kts 164°
2026-04-30 19:13 53.17459 10.38308 20495 ft 416 kts 164°
2026-04-30 19:13 53.13683 10.39646 21124 ft 420 kts 164°
2026-04-30 19:14 53.10812 10.40659 21606 ft 424 kts 165°
2026-04-30 19:14 53.08892 10.41335 21928 ft 427 kts 165°
2026-04-30 19:14 53.05967 10.42366 22428 ft 430 kts 165°
2026-04-30 19:14 53.03026 10.43406 22870 ft 435 kts 165°
2026-04-30 19:15 53.00056 10.44460 23330 ft 438 kts 165°
2026-04-30 19:15 52.94038 10.46578 24214 ft 446 kts 165°
2026-04-30 19:15 52.90988 10.47644 24603 ft 448 kts 165°
2026-04-30 19:16 52.87927 10.48708 25002 ft 451 kts 165°
2026-04-30 19:16 52.84840 10.49781 25392 ft 453 kts 165°
2026-04-30 19:16 52.78629 10.51942 26161 ft 459 kts 165°
2026-04-30 19:17 52.75493 10.53029 26551 ft 461 kts 166°
2026-04-30 19:17 52.69185 10.55210 27296 ft 466 kts 166°
2026-04-30 19:17 52.66007 10.56313 27653 ft 468 kts 166°
2026-04-30 19:18 52.60683 10.58159 28187 ft 473 kts 166°
2026-04-30 19:18 52.56351 10.59651 28619 ft 476 kts 166°
2026-04-30 19:18 52.53099 10.60763 28953 ft 479 kts 166°
2026-04-30 19:19 52.49833 10.61881 29281 ft 481 kts 166°
2026-04-30 19:19 52.46555 10.63006 29594 ft 483 kts 166°
2026-04-30 19:19 52.39962 10.65269 30134 ft 483 kts 166°
2026-04-30 19:20 52.36675 10.66391 30416 ft 483 kts 166°
2026-04-30 19:20 52.33387 10.67514 30664 ft 482 kts 166°
2026-04-30 19:20 52.26834 10.69749 31157 ft 480 kts 166°
2026-04-30 19:21 52.23604 10.70847 31401 ft 479 kts 166°
2026-04-30 19:21 52.17079 10.73052 31905 ft 478 kts 166°
2026-04-30 19:22 52.10574 10.75248 32415 ft 476 kts 166°
2026-04-30 19:22 52.00852 10.78514 33216 ft 474 kts 166°
2026-04-30 19:23 51.91171 10.81762 33447 ft 473 kts 166°
2026-04-30 19:24 51.81481 10.84993 33453 ft 474 kts 166°
2026-04-30 19:25 51.65537 10.91124 33453 ft 468 kts 152°
2026-04-30 19:26 51.53861 11.00346 33452 ft 467 kts 150°
2026-04-30 19:27 51.45098 11.07216 33450 ft 467 kts 150°
2026-04-30 19:28 51.36313 11.14080 33449 ft 470 kts 149°
2026-04-30 19:29 51.24562 11.23253 33440 ft 470 kts 149°
2026-04-30 19:30 51.12732 11.32048 33449 ft 471 kts 151°
2026-04-30 19:31 51.00829 11.40765 33477 ft 471 kts 150°
2026-04-30 19:31 50.91883 11.47336 33448 ft 472 kts 150°
2026-04-30 19:32 50.85913 11.51689 33450 ft 472 kts 150°
2026-04-30 19:32 50.79937 11.56033 33450 ft 472 kts 150°
2026-04-30 19:33 50.74004 11.60340 33452 ft 472 kts 150°
2026-04-30 19:33 50.68025 11.64661 33450 ft 472 kts 150°
2026-04-30 19:34 50.62057 11.68957 33447 ft 472 kts 150°
2026-04-30 19:35 50.53094 11.75403 33444 ft 473 kts 150°
2026-04-30 19:35 50.49958 11.77061 33366 ft 479 kts 161°
2026-04-30 19:35 50.46714 11.78260 32560 ft 479 kts 162°
2026-04-30 19:35 50.43443 11.79417 31630 ft 482 kts 162°
2026-04-30 19:36 50.40199 11.80527 30726 ft 483 kts 162°
2026-04-30 19:36 50.36911 11.81639 29704 ft 485 kts 162°
2026-04-30 19:36 50.30305 11.83900 27818 ft 487 kts 162°
2026-04-30 19:37 50.26995 11.85052 27539 ft 489 kts 162°
2026-04-30 19:37 50.23671 11.86211 27387 ft 489 kts 162°
2026-04-30 19:37 50.20339 11.87371 27441 ft 490 kts 162°
2026-04-30 19:37 50.17011 11.88525 27436 ft 490 kts 162°
2026-04-30 19:38 50.13678 11.89677 27436 ft 490 kts 162°
2026-04-30 19:38 50.10348 11.90830 27438 ft 491 kts 162°
2026-04-30 19:38 50.07017 11.91983 27437 ft 491 kts 162°
2026-04-30 19:38 50.03684 11.93131 27438 ft 491 kts 162°
2026-04-30 19:39 50.00340 11.94277 27440 ft 492 kts 162°
2026-04-30 19:39 49.97001 11.95423 27442 ft 493 kts 162°
2026-04-30 19:39 49.93640 11.96577 27428 ft 494 kts 162°
2026-04-30 19:39 49.90288 11.97724 27454 ft 494 kts 162°
2026-04-30 19:40 49.86929 11.98871 27462 ft 494 kts 162°
2026-04-30 19:40 49.83569 12.00017 27466 ft 494 kts 162°
2026-04-30 19:40 49.80211 12.01159 27456 ft 494 kts 162°
2026-04-30 19:40 49.76892 12.02284 27466 ft 494 kts 162°
2026-04-30 19:41 49.73532 12.03422 27471 ft 494 kts 162°
2026-04-30 19:41 49.70173 12.04561 27464 ft 494 kts 162°
2026-04-30 19:41 49.66817 12.05701 27474 ft 494 kts 162°
2026-04-30 19:41 49.63454 12.06841 27467 ft 494 kts 162°
2026-04-30 19:42 49.60094 12.07974 27458 ft 494 kts 162°
2026-04-30 19:42 49.56737 12.09099 27367 ft 492 kts 162°
2026-04-30 19:42 49.53410 12.10208 26521 ft 488 kts 162°
2026-04-30 19:42 49.50105 12.11310 25715 ft 482 kts 162°
2026-04-30 19:43 49.46853 12.12400 24944 ft 476 kts 162°
2026-04-30 19:43 49.43619 12.13485 24224 ft 471 kts 162°
2026-04-30 19:43 49.40386 12.14285 23432 ft 474 kts 173°
2026-04-30 19:44 49.33879 12.12831 21924 ft 472 kts 189°
2026-04-30 19:44 49.30685 12.11737 21237 ft 467 kts 189°
2026-04-30 19:44 49.27554 12.10641 20953 ft 452 kts 190°
2026-04-30 19:44 49.24545 12.09575 20825 ft 435 kts 189°
2026-04-30 19:45 49.21652 12.08557 20676 ft 420 kts 189°
2026-04-30 19:45 49.18854 12.07584 20557 ft 406 kts 189°
2026-04-30 19:45 49.16129 12.06644 20276 ft 397 kts 189°
2026-04-30 19:45 49.13449 12.05727 19882 ft 393 kts 189°
2026-04-30 19:46 49.10791 12.04821 19477 ft 390 kts 189°
2026-04-30 19:46 49.08154 12.03925 19076 ft 386 kts 189°
2026-04-30 19:46 49.05543 12.03037 18656 ft 383 kts 189°
2026-04-30 19:46 49.02946 12.02148 18195 ft 380 kts 189°
2026-04-30 19:47 49.00378 12.01267 17756 ft 377 kts 189°
2026-04-30 19:47 48.98687 12.00688 17468 ft 375 kts 189°
2026-04-30 19:47 48.95294 11.99532 16893 ft 371 kts 189°
2026-04-30 19:47 48.92786 11.98679 16482 ft 368 kts 189°
2026-04-30 19:48 48.90295 11.97828 16081 ft 366 kts 189°
2026-04-30 19:48 48.87823 11.96984 15697 ft 362 kts 189°
2026-04-30 19:48 48.85375 11.96151 15316 ft 360 kts 189°
2026-04-30 19:48 48.82943 11.95325 14939 ft 357 kts 189°
2026-04-30 19:49 48.80527 11.94504 14561 ft 354 kts 189°
2026-04-30 19:49 48.75750 11.92842 13781 ft 349 kts 189°
2026-04-30 19:49 48.73421 11.92057 13388 ft 346 kts 189°
2026-04-30 19:50 48.71079 11.91284 12993 ft 343 kts 189°
2026-04-30 19:50 48.68754 11.90518 12597 ft 340 kts 189°
2026-04-30 19:50 48.66458 11.89758 12223 ft 337 kts 189°
2026-04-30 19:50 48.64175 11.88996 11835 ft 334 kts 189°
2026-04-30 19:51 48.61914 11.88234 11469 ft 331 kts 189°
2026-04-30 19:51 48.59672 11.87475 11362 ft 330 kts 189°
2026-04-30 19:51 48.57428 11.86682 11375 ft 332 kts 194°
2026-04-30 19:51 48.55379 11.85066 11375 ft 336 kts 218°
2026-04-30 19:52 48.53672 11.82638 11379 ft 338 kts 224°
2026-04-30 19:52 48.52024 11.80117 11377 ft 338 kts 224°
2026-04-30 19:52 48.50377 11.77581 11378 ft 338 kts 224°
2026-04-30 19:52 48.48729 11.75044 11381 ft 338 kts 224°
2026-04-30 19:53 48.47083 11.72511 11367 ft 338 kts 224°
2026-04-30 19:53 48.45470 11.70020 11379 ft 337 kts 225°
2026-04-30 19:53 48.44088 11.67181 11379 ft 338 kts 245°
2026-04-30 19:53 48.43470 11.63791 11383 ft 337 kts 263°
2026-04-30 19:54 48.43167 11.60291 11380 ft 337 kts 264°
2026-04-30 19:54 48.42890 11.56789 11378 ft 337 kts 264°
2026-04-30 19:54 48.42616 11.53282 11372 ft 337 kts 264°
2026-04-30 19:54 48.42345 11.49786 11151 ft 334 kts 264°
2026-04-30 19:55 48.42078 11.46321 10740 ft 332 kts 264°
2026-04-30 19:55 48.41816 11.42878 10353 ft 330 kts 264°
2026-04-30 19:55 48.41565 11.39462 9936 ft 327 kts 264°
2026-04-30 19:55 48.41249 11.36088 9500 ft 325 kts 255°
2026-04-30 19:56 48.40268 11.33066 8949 ft 324 kts 231°
2026-04-30 19:56 48.38570 11.30788 7994 ft 333 kts 207°
2026-04-30 19:56 48.36371 11.29672 7083 ft 337 kts 184°
2026-04-30 19:56 48.34043 11.29909 6301 ft 334 kts 160°
2026-04-30 19:57 48.32095 11.31475 6061 ft 307 kts 136°
2026-04-30 19:57 48.30855 11.33900 5961 ft 285 kts 116°
2026-04-30 19:57 48.29973 11.36491 5978 ft 276 kts 115°
2026-04-30 19:57 48.29338 11.39138 5993 ft 273 kts 96°
2026-04-30 19:58 48.29410 11.41976 5933 ft 272 kts 83°
2026-04-30 19:58 48.29361 11.44788 5735 ft 266 kts 103°
2026-04-30 19:58 48.28520 11.47199 5150 ft 260 kts 131°
2026-04-30 19:58 48.27039 11.48540 5002 ft 244 kts 161°
2026-04-30 19:59 48.25352 11.48502 4987 ft 251 kts 192°
2026-04-30 19:59 48.23843 11.47131 4985 ft 261 kts 223°
2026-04-30 19:59 48.22907 11.41992 4980 ft 264 kts 286°
2026-04-30 20:00 48.23380 11.40317 4977 ft 254 kts 308°
2026-04-30 20:00 48.24607 11.38661 4981 ft 227 kts 342°
2026-04-30 20:00 48.26073 11.38316 4989 ft 204 kts 18°
2026-04-30 20:00 48.27227 11.39178 4987 ft 179 kts 48°
2026-04-30 20:01 48.28889 11.41846 4990 ft 174 kts 54°
2026-04-30 20:01 48.29680 11.43219 4986 ft 171 kts 54°
2026-04-30 20:01 48.30440 11.44529 4939 ft 162 kts 54°
2026-04-30 20:02 48.31592 11.47162 4682 ft 142 kts 66°
2026-04-30 20:02 48.31885 11.48575 4277 ft 148 kts 82°
2026-04-30 20:03 48.32201 11.51665 4007 ft 153 kts 84°
2026-04-30 20:03 48.32337 11.53249 4005 ft 153 kts 84°
2026-04-30 20:03 48.32468 11.54840 4004 ft 153 kts 84°
2026-04-30 20:03 48.32597 11.56432 3945 ft 154 kts 85°
2026-04-30 20:04 48.32723 11.58016 3814 ft 152 kts 85°
2026-04-30 20:04 48.32848 11.59579 3620 ft 147 kts 85°
2026-04-30 20:04 48.32963 11.61025 3452 ft 135 kts 85°
2026-04-30 20:05 48.33175 11.63720 3080 ft 122 kts 85°
2026-04-30 20:05 48.33270 11.64922 2919 ft 112 kts 86°
2026-04-30 20:05 48.33450 11.67209 2620 ft 112 kts 84°
2026-04-30 20:06 48.33550 11.68398 2442 ft 117 kts 84°
2026-04-30 20:06 48.33651 11.69635 2283 ft 121 kts 84°
2026-04-30 20:06 48.33741 11.70914 2105 ft 125 kts 84°
2026-04-30 20:06 48.33837 11.72219 1888 ft 126 kts 84°
2026-04-30 20:07 48.33950 11.73526 1750 ft 127 kts 83°
2026-04-30 20:07 48.34047 11.74838 1570 ft 125 kts 85°
2026-04-30 20:07 48.34228 11.77254 1471 ft 89 kts 83°
2026-04-30 20:08 48.34282 11.77910 1469 ft 39 kts 84°
2026-04-30 20:08 48.34302 11.78123 1471 ft 19 kts 77°
2026-04-30 20:08 48.34373 11.78334 1472 ft 24 kts 56°
2026-04-30 20:08 48.34470 11.78537 1463 ft 17 kts 53°
2026-04-30 20:09 48.34508 11.78614 1461 ft 0 kts 53°
2026-04-30 20:10 48.34519 11.78636 1456 ft 11 kts 53°
2026-04-30 20:10 48.34580 11.78760 1464 ft 16 kts 53°
2026-04-30 20:10 48.34633 11.78916 1466 ft 18 kts 78°
2026-04-30 20:11 48.34661 11.79294 1467 ft 13 kts 83°
2026-04-30 20:11 48.34666 11.79356 1467 ft 4 kts 82°
2026-04-30 20:11 48.34669 11.79390 1463 ft 4 kts 82°
2026-04-30 20:12 48.34705 11.79552 1464 ft 10 kts 22°
2026-04-30 20:12 48.34773 11.79555 1461 ft 9 kts
2026-04-30 20:12 48.34825 11.79565 1464 ft 4 kts 356°
2026-04-30 20:13 48.34847 11.79561 1467 ft 3 kts 353°
2026-04-30 20:13 48.34864 11.79558 1467 ft 2 kts 353°
2026-04-30 20:13 48.34914 11.79549 1467 ft 13 kts 353°
2026-04-30 20:13 48.34996 11.79533 1464 ft 11 kts 353°
2026-04-30 20:14 48.35027 11.79476 1461 ft 4 kts 270°
2026-04-30 20:14 48.35024 11.79433 1460 ft 4 kts 263°
2026-04-30 20:14 48.35021 11.79397 1467 ft 3 kts 263°
2026-04-30 20:14 48.35019 11.79370 1467 ft 2 kts 263°
2026-04-30 20:15 48.35019 11.79360 1467 ft 1 kts 263°
2026-04-30 20:15 48.35019 11.79359 1467 ft 0 kts 263°